Time,TemperatureF,DewpointF,PressureIn,WindDirection,WindDirectionDegrees,WindSpeedMPH,WindSpeedGustMPH,Humidity,HourlyPrecipIn,Conditions,Clouds,dailyrainin,SoftwareType,DateUTC
2015-07-02 00:03:00,73.6,57.9,29.87,East,81,3.0,7.0,58,0.00,,,0.00,meteohub,2015-07-02 07:03:00,
2015-07-02 00:08:00,73.8,59.5,29.87,East,80,5.0,7.0,61,0.00,,,0.00,meteohub,2015-07-02 07:08:00,
2015-07-02 00:14:00,73.6,57.9,29.87,East,81,1.0,7.0,58,0.00,,,0.00,meteohub,2015-07-02 07:14:00,
2015-07-02 00:19:00,73.8,59.0,29.88,East,80,1.0,7.0,60,0.00,,,0.00,meteohub,2015-07-02 07:19:00,
2015-07-02 00:24:00,73.6,58.3,29.88,East,80,0.0,7.0,59,0.00,,,0.00,meteohub,2015-07-02 07:24:00,
2015-07-02 00:29:00,73.4,57.7,29.88,East,81,3.0,5.0,58,0.00,,,0.00,meteohub,2015-07-02 07:29:00,
2015-07-02 00:34:00,73.4,58.6,29.88,East,80,2.0,4.0,60,0.00,,,0.00,meteohub,2015-07-02 07:34:00,
2015-07-02 00:39:00,73.9,58.3,29.88,East,80,1.0,3.0,58,0.00,,,0.00,meteohub,2015-07-02 07:39:00,
2015-07-02 00:44:00,73.6,54.9,29.88,East,81,3.0,3.0,52,0.00,,,0.00,meteohub,2015-07-02 07:44:00,
2015-07-02 00:49:00,73.2,53.4,29.88,East,81,1.0,3.0,50,0.00,,,0.00,meteohub,2015-07-02 07:49:00,
2015-07-02 00:54:00,73.8,51.6,29.89,East,80,2.0,4.0,46,0.00,,,0.00,meteohub,2015-07-02 07:54:00,
2015-07-02 00:59:00,73.9,53.6,29.89,East,80,0.0,4.0,49,0.00,,,0.00,meteohub,2015-07-02 07:59:00,
2015-07-02 01:04:00,73.4,52.5,29.89,East,80,1.0,3.0,48,0.00,,,0.00,meteohub,2015-07-02 08:04:00,
2015-07-02 01:09:00,73.8,55.0,29.89,East,80,1.0,3.0,52,0.00,,,0.00,meteohub,2015-07-02 08:09:00,
2015-07-02 01:14:00,73.8,55.0,29.89,East,80,1.0,3.0,52,0.00,,,0.00,meteohub,2015-07-02 08:14:00,
2015-07-02 01:19:00,73.6,52.7,29.89,East,81,0.0,3.0,48,0.00,,,0.00,meteohub,2015-07-02 08:19:00,
2015-07-02 01:24:00,73.6,49.1,29.89,East,80,0.0,3.0,42,0.00,,,0.00,meteohub,2015-07-02 08:24:00,
2015-07-02 01:29:00,73.8,46.6,29.88,East,80,1.0,3.0,38,0.00,,,0.00,meteohub,2015-07-02 08:29:00,
2015-07-02 01:34:00,73.6,50.9,29.88,East,80,1.0,3.0,45,0.00,,,0.00,meteohub,2015-07-02 08:34:00,
2015-07-02 01:39:00,73.2,51.8,29.89,East,80,0.0,3.0,47,0.00,,,0.00,meteohub,2015-07-02 08:39:00,
2015-07-02 01:44:00,72.9,52.0,29.88,East,81,0.0,3.0,48,0.00,,,0.00,meteohub,2015-07-02 08:44:00,
2015-07-02 01:49:00,73.6,48.4,29.87,East,80,1.0,2.0,41,0.00,,,0.00,meteohub,2015-07-02 08:49:00,
2015-07-02 01:54:00,73.8,51.1,29.87,East,80,0.0,4.0,45,0.00,,,0.00,meteohub,2015-07-02 08:54:00,
2015-07-02 01:59:00,73.6,51.4,29.87,East,80,0.0,4.0,46,0.00,,,0.00,meteohub,2015-07-02 08:59:00,
2015-07-02 02:04:00,73.6,50.9,29.87,East,80,0.0,4.0,45,0.00,,,0.00,meteohub,2015-07-02 09:04:00,
2015-07-02 02:09:00,73.6,52.7,29.86,East,80,1.0,1.0,48,0.00,,,0.00,meteohub,2015-07-02 09:09:00,
2015-07-02 02:14:00,73.2,54.5,29.87,East,80,0.0,1.0,52,0.00,,,0.00,meteohub,2015-07-02 09:14:00,